Weather History for KJWY - June, 2013

Change the Weather History Date:

Thursday, June 13, 2013

  Actual Average (KRBD) Record (KRBD)
Temperature  
Mean Temperature 84 °F -  
Max Temperature 96 °F 87 °F 100 °F (2011)
Min Temperature 72 °F 68 °F 64 °F (2003)
Cooling Degree Days 19    
Growing Degree Days 34 (Base 50)    
Moisture  
Dew Point 66 °F    
Average Humidity 57    
Maximum Humidity 86    
Minimum Humidity 31    
Precipitation  
Precipitation 0.00 in - - ()
Sea Level Pressure  
Sea Level Pressure 30.01 in    
Wind  
Wind Speed 6 mph (SSW)    
Max Wind Speed 13 mph    
Max Gust Speed 18 mph    
Visibility 10 miles    
Events      
Averages and records for this station are not official NWS values.
T = Trace of Precipitation, MM = Missing Value Source: NWS Daily Summary

Daily Weather History Graph

Daily Weather History Graph

Search for Another Location

Airport or City:

Trip Planner

Search our weather history database for the weather conditions in past years. The results will help you decide how hot, cold, wet, or windy it might be!

Date:

Astronomy

Jun. 13, 2013 Rise Set
Actual Time 6:19 AM CDT 8:35 PM CDT
Civil Twilight 5:51 AM CDT 9:04 PM CDT
Nautical Twilight 5:16 AM CDT 9:39 PM CDT
Astronomical Twilight 4:39 AM CDT 10:16 PM CDT
Moon 10:45 AM CDT (6/13) 11:57 PM CDT (6/13)
Length of Visible Light 15h 12m
Length of Day
14h 15m
Waxing Crescent, 22% of the Moon is Illuminated
Jun 13
Waxing Crescent
Jun 16
First Quarter
Jun 23
Full
Jun 29
Last Quarter
Jul 8
New

Hourly Weather History & Observations

Time (CDT) Temp. Heat Index Dew Point Humidity Pressure Visibility Wind Dir Wind Speed Gust Speed Precip Events Conditions
12:15 AM 79.9 °F - 67.6 °F 66% 30.01 in 10.0 mi South 4.6 mph - N/A   Clear
12:35 AM 78.8 °F - 67.6 °F 68% 30.01 in 10.0 mi South 5.8 mph - N/A   Clear
12:55 AM 78.8 °F - 67.5 °F 68% 30.01 in 10.0 mi South 6.9 mph - N/A   Clear
1:15 AM 78.8 °F - 67.1 °F 67% 30.01 in 10.0 mi South 8.1 mph - N/A   Clear
1:35 AM 78.8 °F - 66.2 °F 65% 30.01 in 10.0 mi South 8.1 mph - N/A   Clear
1:55 AM 78.3 °F - 66.0 °F 66% 30.01 in 10.0 mi South 8.1 mph - N/A   Clear
2:15 AM 77.9 °F - 65.7 °F 66% 30.01 in 10.0 mi SSW 8.1 mph - N/A   Clear
2:35 AM 77.5 °F - 65.7 °F 67% 30.01 in 10.0 mi SSW 6.9 mph - N/A   Clear
2:55 AM 77.2 °F - 65.5 °F 67% 30.01 in 10.0 mi SSW 8.1 mph - N/A   Clear
3:15 AM 76.5 °F - 65.7 °F 69% 30.02 in 10.0 mi SSW 6.9 mph - N/A   Clear
3:35 AM 76.1 °F - 66.2 °F 71% 30.02 in 10.0 mi South 5.8 mph - N/A   Clear
3:55 AM 75.7 °F - 66.4 °F 73% 30.02 in 10.0 mi SSW 6.9 mph - N/A   Clear
4:15 AM 75.2 °F - 66.6 °F 74% 30.01 in 10.0 mi SSW 5.8 mph - N/A   Clear
4:35 AM 74.7 °F - 66.6 °F 76% 30.02 in 10.0 mi SSW 3.5 mph - N/A   Clear
4:55 AM 74.3 °F - 66.9 °F 78% 30.02 in 10.0 mi SSW 4.6 mph - N/A   Clear
5:15 AM 73.4 °F - 66.7 °F 80% 30.03 in 10.0 mi SSW 5.8 mph - N/A   Clear
5:35 AM 72.7 °F - 66.9 °F 82% 30.03 in 10.0 mi SSW 5.8 mph - N/A   Clear
5:55 AM 72.7 °F - 67.3 °F 83% 30.03 in 10.0 mi SSW 5.8 mph - N/A   Clear
6:15 AM 72.0 °F - 67.6 °F 86% 30.03 in 10.0 mi SSW 4.6 mph - N/A   Clear
6:35 AM 72.5 °F - 67.8 °F 85% 30.04 in 10.0 mi SSW 5.8 mph - N/A   Clear
6:55 AM 73.0 °F - 68.0 °F 84% 30.05 in 10.0 mi SSW 3.5 mph - N/A   Clear
7:15 AM 73.6 °F - 68.0 °F 83% 30.06 in 10.0 mi Calm Calm - N/A   Clear
7:35 AM 74.5 °F - 68.4 °F 81% 30.06 in 10.0 mi South 4.6 mph - N/A   Clear
7:55 AM 75.7 °F - 68.5 °F 78% 30.07 in 10.0 mi South 4.6 mph - N/A   Clear
8:15 AM 77.5 °F - 68.9 °F 75% 30.08 in 10.0 mi SSW 8.1 mph - N/A   Clear
8:35 AM 79.2 °F - 69.1 °F 71% 30.08 in 10.0 mi SSW 6.9 mph - N/A   Clear
8:55 AM 80.1 °F 82.9 °F 68.9 °F 69% 30.09 in 10.0 mi SSW 8.1 mph - N/A   Clear
9:15 AM 81.0 °F 84.1 °F 69.3 °F 67% 30.09 in 10.0 mi SSW 10.4 mph - N/A   Clear
9:35 AM 82.8 °F 86.4 °F 69.3 °F 64% 30.08 in 10.0 mi SW 12.7 mph - N/A   Clear
9:55 AM 82.6 °F 86.1 °F 69.1 °F 64% 30.08 in 10.0 mi SW 11.5 mph 18.4 mph N/A   Clear
10:15 AM 83.8 °F 87.5 °F 69.3 °F 61% 30.08 in 10.0 mi SW 11.5 mph - N/A   Clear
10:35 AM 85.1 °F 88.8 °F 68.7 °F 58% 30.08 in 10.0 mi SW 10.4 mph - N/A   Clear
10:55 AM 85.5 °F 89.1 °F 68.9 °F 57% 30.08 in 10.0 mi SSW 9.2 mph - N/A   Clear
11:15 AM 86.9 °F 91.0 °F 68.7 °F 55% 30.08 in 10.0 mi SW 8.1 mph - N/A   Clear
11:35 AM 87.8 °F 91.1 °F 67.5 °F 51% 30.07 in 10.0 mi SW 8.1 mph - N/A   Clear
11:55 AM 88.5 °F 91.2 °F 66.4 °F 48% 30.07 in 10.0 mi SW 10.4 mph - N/A   Clear
12:15 PM 88.9 °F 91.4 °F 66.6 °F 47% 30.07 in 10.0 mi SSW 8.1 mph 16.1 mph N/A   Clear
12:35 PM 90.0 °F 92.0 °F 65.5 °F 44% 30.06 in 10.0 mi SSW 8.1 mph - N/A   Clear
12:55 PM 90.1 °F 92.3 °F 65.7 °F 44% 30.05 in 10.0 mi SSW 10.4 mph - N/A   Clear
1:15 PM 91.4 °F 93.2 °F 64.8 °F 41% 30.05 in 10.0 mi SSW 8.1 mph - N/A   Clear
1:35 PM 92.1 °F 93.2 °F 63.0 °F 38% 30.04 in 10.0 mi SSW 8.1 mph - N/A   Clear
1:55 PM 92.3 °F 92.3 °F 61.0 °F 35% 30.03 in 10.0 mi SW 6.9 mph - N/A   Clear
2:15 PM 92.8 °F 95.2 °F 65.5 °F 40% 30.02 in 10.0 mi South 8.1 mph - N/A   Clear
2:35 PM 93.6 °F 95.5 °F 64.4 °F 38% 30.01 in 10.0 mi South 4.6 mph - N/A   Clear
2:55 PM 93.9 °F 96.1 °F 64.6 °F 38% 30.00 in 10.0 mi South 6.9 mph - N/A   Clear
3:15 PM 93.7 °F 94.9 °F 63.1 °F 36% 29.99 in 10.0 mi SSE 8.1 mph - N/A   Clear
3:35 PM 93.9 °F 94.8 °F 62.1 °F 35% 29.98 in 10.0 mi SSW 5.8 mph - N/A   Clear
3:55 PM 94.3 °F 94.9 °F 62.2 °F 34% 29.97 in 10.0 mi WSW 5.8 mph - N/A   Clear
4:15 PM 95.4 °F 96.6 °F 63.0 °F 34% 29.96 in 10.0 mi SW 6.9 mph - N/A   Clear
4:35 PM 95.2 °F 96.3 °F 62.6 °F 34% 29.95 in 10.0 mi SSE 4.6 mph - N/A   Clear
4:55 PM 94.8 °F 97.1 °F 64.8 °F 37% 29.95 in 10.0 mi SSW 8.1 mph - N/A   Clear
5:15 PM 95.5 °F 97.4 °F 63.7 °F 35% 29.94 in 10.0 mi SSE 9.2 mph - N/A   Clear
5:35 PM 96.3 °F 96.7 °F 60.6 °F 31% 29.94 in 10.0 mi South 9.2 mph - N/A   Clear
5:55 PM 94.8 °F 94.9 °F 60.8 °F 32% 29.94 in 10.0 mi South 5.8 mph - N/A   Clear
6:15 PM 95.0 °F 96.5 °F 63.7 °F 35% 29.93 in 10.0 mi SE 8.1 mph - N/A   Clear
6:35 PM 95.2 °F 96.8 °F 63.3 °F 35% 29.93 in 10.0 mi SE 5.8 mph - N/A   Clear
6:55 PM 94.1 °F 95.5 °F 63.7 °F 36% 29.92 in 10.0 mi SSE 8.1 mph - N/A   Clear
7:15 PM 93.4 °F 94.3 °F 62.8 °F 36% 29.93 in 10.0 mi SSE 8.1 mph - N/A   Clear
7:35 PM 92.7 °F 93.6 °F 62.6 °F 37% 29.92 in 10.0 mi SSE 4.6 mph - N/A   Clear
7:55 PM 91.2 °F 92.2 °F 63.0 °F 39% 29.92 in 10.0 mi SSE 4.6 mph - N/A   Clear
8:15 PM 88.9 °F 90.3 °F 64.4 °F 44% 29.93 in 10.0 mi SSE 3.5 mph - N/A   Clear
8:35 PM 86.0 °F 87.9 °F 65.7 °F 50% 29.93 in 10.0 mi Calm Calm - N/A   Clear
8:55 PM 84.2 °F 86.6 °F 66.2 °F 55% 29.93 in 10.0 mi Calm Calm - N/A   Clear
9:15 PM 83.3 °F 85.3 °F 65.8 °F 55% 29.94 in 10.0 mi Calm Calm - N/A   Clear
9:35 PM 83.1 °F 85.2 °F 66.0 °F 56% 29.94 in 10.0 mi Calm Calm - N/A   Clear
9:55 PM 82.2 °F 84.4 °F 66.2 °F 58% 29.95 in 10.0 mi Calm Calm - N/A   Clear
10:15 PM 82.4 °F 84.4 °F 65.8 °F 57% 29.95 in 10.0 mi Calm Calm - N/A   Clear
10:35 PM 80.1 °F 82.1 °F 66.2 °F 62% 29.95 in 10.0 mi Calm Calm - N/A   Clear
10:55 PM 80.8 °F 82.9 °F 66.2 °F 61% 29.96 in 10.0 mi Calm Calm - N/A   Clear
11:15 PM 80.6 °F 82.7 °F 66.2 °F 61% 29.96 in 10.0 mi Calm Calm - N/A   Clear
11:35 PM 78.8 °F - 66.2 °F 65% 29.96 in 10.0 mi Calm Calm - N/A   Clear
11:55 PM 77.5 °F - 66.6 °F 69% 29.97 in 10.0 mi Calm Calm - N/A   Clear